Regional Weather Roundup
Issued by NWS

Home | Current Version | Previous Version | Text Only | Print | Product List | Glossary Off
Versions: 1 2 3 4 5 6 7 8 9 10 11 12 13 14 15 16 17 18 19 20 21 22 23 24 25 26 27 28 29 30 31 32 33 34 35 36 37 38 39 40 41 42 43 44 45 46 47 48 49 50

000
ASUS43 KIND 020159
RWRIN

WEATHER ROUNDUP FOR INDIANA
NATIONAL WEATHER SERVICE INDIANAPOLIS IN
900 PM EST THU DEC 01 2016

NOTE: "FAIR" INDICATES FEW OR NO CLOUDS BELOW 12,000 FEET WITH NO
SIGNIFICANT WEATHER AND/OR OBSTRUCTIONS TO VISIBILITY.

* - STATION DOES NOT REPORT WEATHER SUCH AS PRECIPITATION OR FOG.

+ - STATION NOT QUALITY CONTROLLED BY THE NATIONAL WEATHER SERVICE.
    USE DATA WITH CAUTION...ESPECIALLY DEWPOINT AND RELATIVE
    HUMIDITY OBSERVATIONS.

INZ001>003-010>013-019-020-020300-
NORTHWEST INDIANA

CITY           SKY/WX    TMP DP  RH WIND       PRES   REMARKS
GARY /AIRPORT/ CLOUDY    39  36  87 W12G23    29.99R
MONTICELLO +   CLOUDY    37  28  71 W12       30.01S

$$

LMZ046-743>745-020300-
SOUTHERN LAKE MICHIGAN

STATION/POSITION TIME  TEMP    WIND        PRES    WAVE
                       AIR SEA DIR/SP/G            HT
                 (UTC) (F)     (DEG/KT/KT) (MB)    (FT)
BURNS HARBOR     0106   41     260/ 17     1014.9
MICHIGAN CITY    0100   40     240/ 24/ 28   N/A

$$

INZ004-005-014>016-021>024-020300-
NORTH CENTRAL INDIANA

CITY           SKY/WX    TMP DP  RH WIND       PRES   REMARKS
ELKHART        MOCLDY    39  32  75 SW10      29.94R
GOSHEN         CLOUDY    39  30  70 W13       29.95R
SOUTH BEND     CLOUDY    38  32  79 W13       29.95R
WARSAW +       CLOUDY    37  30  75 W12       29.97R

$$

INZ006>009-017-018-025>027-020300-
NORTHEAST INDIANA

CITY           SKY/WX    TMP DP  RH WIND       PRES   REMARKS
ANGOLA *+      CLOUDY    37  34  87 W8        29.92R
FORT WAYNE     CLOUDY    38  31  76 W15       29.97R
KENDALLVILLE + CLOUDY    37  32  79 W12       29.93S

$$

INZ028-029-035-036-043>045-051>053-020300-
WEST CENTRAL INDIANA

CITY           SKY/WX    TMP DP  RH WIND       PRES   REMARKS
CRAWFORDSVL +  CLOUDY    35  31  85 W8        30.04R WCI  28
GREENCASTLE +  CLOUDY    36  32  87 W7        30.06R
LAFAYETTE      CLOUDY    37  30  75 W8        30.03R
TERRE HAUTE    CLOUDY    37  29  72 W10       30.07R

$$

INZ030>032-037>040-046>048-054>057-064-065-020300-
CENTRAL INDIANA

CITY           SKY/WX    TMP DP  RH WIND       PRES   REMARKS
COLUMBUS       CLOUDY    37  30  75 W8        30.07R
GREENWOOD *+   CLOUDY    37  31  76 W12       30.05R
INDIANAPOLIS   CLOUDY    37  29  72 W13       30.04R
-EAGLE CREEK   CLOUDY    38  29  70 W12       30.03R
KOKOMO +       CLOUDY    37  30  75 W13       30.02R
SHELBYVILLE    CLOUDY    38  29  70 W12       30.04R
ZIONSVILLE +   CLOUDY    36  31  82 W8        30.03S

$$

INZ033-034-041-042-049-050-058-059-020300-
EAST CENTRAL INDIANA

CITY           SKY/WX    TMP DP  RH WIND       PRES   REMARKS
MUNCIE         CLOUDY    38  31  76 W10       30.01R

$$

INZ060-061-067>069-081>083-085>088-020300-
SOUTHWEST INDIANA

CITY           SKY/WX    TMP DP  RH WIND       PRES   REMARKS
EVANSVILLE     CLEAR     35  29  78 N5        30.09S WCI  31
HUNTINGBURG *+ CLEAR     35  29  78 NW3       30.09R

$$

INZ062-063-066-070>080-084-089>092-020300-
SOUTH CENTRAL AND SOUTHEAST INDIANA

CITY           SKY/WX    TMP DP  RH WIND       PRES   REMARKS
BLOOMINGTON    CLOUDY    37  28  70 W8        30.06R
MADISON *+     CLEAR     34  28  80 W3        30.08R
SEYMOUR +      CLOUDY    39  28  65 W9G18     30.07R

$$





USA.gov is the U.S. government's official web portal to all federal, state and local government web resources and services.